Weather in Chibizhek

Russia / Krasnoyarsk Krai     54°24′02″N   93°38′37″E
temp.,
°C
wind,
m/s
gust,
m/s
humid.,
%
clouds,
%
prec.,
mm/h
press.,
hPa
HPBL,
m
7 may, fri
fri701:00+5e229097 0.0 101114
04:00+4e1191100 0.0 101011
07:00+7se2380100 0.0 100886
10:00+13ssw2456100 0.0 1006395
13:00+15ssw4752100 0.0 1006893
16:00+10s3992100 0.6 1007703
19:00+10ssw2696100 1.7 1007407
22:00+8nw2590100 2.2 1011159
8 may, sat
sat801:00+5wnw248821 2.3 101599
04:00+4sw229169 0.4 101619
07:00+5sw278345 0.7 1017419
10:00+9wsw686199 0.3 10161924
13:00+9w5850100 0.6 10151971
16:00+11wsw61041100 0.1 10142479
19:00+9w41156100 0.1 10141634
22:00+6wsw287992 0.2 1014476
9 may, sun
sun901:00+6wsw41494100 2.1 10131428
04:00+5sw51295100 1.1 10121302
07:00+3nw2796100 5.3 1014712
10:00+2wnw389086 1.8 10151007
13:00+2wnw367398 2.1 10171269
16:00+3wnw3772100 0.3 10181081
19:00+3nw378198 0.6 1020907
22:000nw239586 0.2 1022278
10 may, mon
mon1001:00−2n119612 0.3 102311
04:00−2ne119765 0.0 102311
07:00+2ene118011 0.0 1022255
10:00+7e225651 0.0 10191196
13:00+10ne224878 0.1 10161729
16:00+10ne334982 0.0 10131781
19:00+7ne4768100 0.0 1013559
22:00+2ne3390100 0.0 101357
11 may, tue
tue1101:00+1ne229350 0.0 101155
04:000ne2294100 0.0 101039
07:00+3ene1275100 0.0 1009132
10:00+8se1160100 0.0 1008886
13:00+7ne1281100 1.2 1009840
16:00+7ene1479100 1.2 1010728
19:00+7ne3678100 1.7 1011576
22:00+4ne31085100 0.0 1013445